GW7144 Weather Reports


Display with metric or nautical units.
time (UTC)temp
F
wind
direction
speed
MPH
gust
MPH
rain 1hr
in
rain 24hr
in
rain mn
in
humidity
%
barometer
mb
20260505110536 60 152 2.0 4.0 0.00 0.24 0.24 95 1004.6
20260505102026 61 110 0.0 2.0 0.00 0.24 0.24 94 1005.2
20260505100524 61 157 1.0 2.0 0.00 0.24 0.24 94 1005.4
20260505095019 61 10 2.0 4.0 0.00 0.24 0.24 94 1005.0
20260505093514 62 312 0.0 2.0 0.00 0.24 0.24 93 1004.2
20260505092013 62 156 0.0 2.0 0.00 0.24 0.24 92 1003.8
20260505090512 62 196 2.0 3.0 0.00 0.24 0.24 92 1004.2
20260505085011 62 185 3.0 6.0 0.00 0.24 0.24 93 1004.2
20260505083509 62 145 2.0 5.0 0.00 0.23 0.23 94 1003.4
20260505082004 62 185 3.0 5.0 0.00 0.23 0.23 94 1003.3
20260505080459 62 196 1.0 3.0 0.02 0.23 0.23 95 1003.3
20260505074954 62 189 4.0 4.0 0.00 0.23 0.23 95 1003.6
20260505073452 62 151 2.0 3.0 0.05 0.22 0.22 95 1005.4
20260505071947 62 176 2.0 3.0 0.17 0.20 0.20 94 1005.3
20260505070444 62 232 5.0 13.0 0.14 0.15 0.15 93 1006.5
20260505064939 62 164 2.0 9.0 0.14 0.11 0.11 92 1006.7
20260505063436 63 217 8.0 10.0 0.17 0.07 0.07 90 1006.5
20260505061932 64 180 6.0 7.0 0.12 0.03 0.03 83 1005.3
20260505060431 66 142 4.0 6.0 0.02 0.00 0.00 76 1004.6
20260505054926 67 147 4.0 6.0 0.00 0.00 0.00 71 1004.1
20260505053424 67 15 1.0 3.0 0.00 0.00 0.00 72 1004.1
20260505051921 67 147 1.0 4.0 0.00 0.00 0.00 71 1004.5
20260505050419 67 165 1.0 3.0 0.00 0.00 0.00 71 1004.6
20260505040405 67 100 0.0 2.0 0.00 0.00 0.00 71 1004.6
20260505034900 67 169 2.0 5.0 0.00 0.00 0.00 69 1005.0
20260505033356 68 136 1.0 4.0 0.00 0.00 0.00 70 1004.7
20260505031853 68 147 1.0 4.0 0.00 0.00 0.00 69 1005.2
20260505030349 69 148 2.0 4.0 0.00 0.00 0.00 68 1004.9
20260505024847 68 105 2.0 3.0 0.00 0.00 0.00 67 1005.3
20260505023344 69 159 1.0 2.0 0.00 0.00 0.00 68 1005.3
20260505021841 70 89 1.0 2.0 0.00 0.00 0.00 66 1004.9
20260505020341 70 167 2.0 4.0 0.00 0.00 0.00 64 1004.7
20260505014838 70 146 0.0 4.0 0.00 0.00 0.00 64 1004.6
20260505013334 71 162 1.0 3.0 0.00 0.00 0.00 63 1004.6
20260505011832 71 196 0.0 3.0 0.00 0.00 0.00 62 1004.5
20260505010333 72 187 4.0 6.0 0.00 0.00 0.00 59 1004.3
20260505004830 73 173 3.0 4.0 0.00 0.00 0.00 58 1004.3
20260505003326 74 169 2.0 6.0 0.00 0.00 0.00 59 1004.1
20260505001823 74 153 4.0 5.0 0.00 0.00 0.00 57 1004.0
20260505000321 75 190 3.0 4.0 0.00 0.00 0.00 58 1003.9
20260504234816 76 185 2.0 9.0 0.00 0.00 0.00 53 1003.8
20260504233312 76 162 1.0 3.0 0.00 0.00 0.00 57 1003.7
20260504231809 78 186 6.0 7.0 0.00 0.00 0.00 52 1003.9
20260504230306 79 174 4.0 6.0 0.00 0.00 0.00 49 1003.9
20260504224803 81 175 2.0 3.0 0.00 0.00 0.00 51 1003.7
20260504223258 80 163 3.0 7.0 0.00 0.00 0.00 47 1003.6
20260504221755 80 198 5.0 6.0 0.00 0.00 0.00 50 1003.4
20260504220252 81 183 4.0 6.0 0.00 0.00 0.00 48 1003.6
20260504214747 83 199 6.0 9.0 0.00 0.00 0.00 47 1003.9
20260504213243 83 194 6.0 7.0 0.00 0.00 0.00 47 1003.6
20260504211740 82 183 6.0 9.0 0.00 0.00 0.00 45 1003.8
20260504210236 83 190 4.0 11.0 0.00 0.00 0.00 47 1003.9
20260504204735 83 194 10.0 11.0 0.00 0.00 0.00 46 1004.3
20260504203235 82 177 2.0 3.0 0.00 0.00 0.00 49 1004.5
20260504201735 81 185 9.0 11.0 0.00 0.00 0.00 49 1004.5
20260504200231 83 194 4.0 10.0 0.00 0.00 0.00 48 1004.8
20260504194727 83 197 5.0 5.0 0.00 0.00 0.00 47 1004.8
20260504193223 82 176 6.0 13.0 0.00 0.00 0.00 46 1005.2
20260504191723 82 191 7.0 17.0 0.00 0.00 0.00 43 1005.5
20260504190223 82 178 7.0 13.0 0.00 0.00 0.00 49 1005.6
20260504184719 82 201 3.0 9.0 0.00 0.00 0.00 47 1005.2
20260504183214 81 171 4.0 10.0 0.00 0.00 0.00 49 1004.9
20260504181712 81 204 6.0 12.0 0.00 0.00 0.00 47 1005.4
20260504180213 81 158 4.0 14.0 0.00 0.00 0.00 49 1005.6
20260504174710 80 211 5.0 12.0 0.00 0.00 0.00 47 1005.5
20260504173207 79 186 4.0 11.0 0.00 0.00 0.00 49 1005.6
20260504171702 80 190 7.0 13.0 0.00 0.00 0.00 45 1005.8
20260504170159 78 170 2.0 11.0 0.00 0.00 0.00 50 1006.0
20260504160152 76 172 5.0 13.0 0.00 0.00 0.00 50 1006.4
20260504150143 73 169 10.0 11.0 0.00 0.00 0.00 53 1006.6
20260504140128 69 183 6.0 10.0 0.00 0.00 0.00 55 1007.4
20260504130117 64 185 6.0 10.0 0.00 0.00 0.00 61 1007.7
20260504120109 61 175 2.0 5.0 0.00 0.00 0.00 65 1007.9